EW2147 Hobro DK current weather conditions

sailwx.info

Wind from 110 at 1 knots gusting 5

Air temperature 3.9° C
Dewpoint 3.3° C

Last reported at 2019-Dec-14 12:03 UTC.
Time now 2019-Dec-14 12:33 UTC

Location: N 56°40' E 009°40'.
View on Google Maps.

See reports from other nearby stations

  
Tides and Currents Weather Stations Pressure Air Temp Water Temp Dewpoint Dewpoint Depression Visibility Wind Speed Wind Dir Waves Ship Positions
date/time (UTC)wind fromknots sea level pressurealtimeterstation pressurevisibilityair tempwater tempwave heightnotes
2019-Dec-14 12:03 110 1 gusting 5 3.9
2019-Dec-14 11:46 129 2 gusting 7 3.9
2019-Dec-14 11:31 113 2 gusting 6 3.3
2019-Dec-14 11:15 084 4 gusting 6 3.3
2019-Dec-14 11:01 110 2 gusting 7 3.3
2019-Dec-14 10:46 112 2 gusting 6 2.8
2019-Dec-14 10:30 122 1 gusting 6 2.8
2019-Dec-14 10:15 095 2 gusting 6 2.8
2019-Dec-14 10:01 148 3 gusting 9 2.8
2019-Dec-14 09:46 096 3 gusting 6 2.2
2019-Dec-14 09:30 100 3 gusting 7 2.2
2019-Dec-14 09:01 150 4 gusting 7 2.2
2019-Dec-14 08:45 119 3 gusting 8 2.2
2019-Dec-14 08:31 091 2 gusting 7 1.7
2019-Dec-14 08:15 108 4 gusting 6 1.7
2019-Dec-14 08:00 126 3 gusting 7 1.7
2019-Dec-14 07:46 101 4 gusting 7 1.7
2019-Dec-14 07:30 096 1 gusting 5 1.7
2019-Dec-14 07:15 075 1 gusting 6 1.1
2019-Dec-14 07:00 093 1.1
2019-Dec-14 06:45 125 0 gusting 6 1.1
2019-Dec-14 06:30 085 0 gusting 4 1.1
2019-Dec-14 06:15 200 1.1
2019-Dec-14 06:00 084 1.1
2019-Dec-14 05:45 060 1 gusting 5 1.1
2019-Dec-14 05:30 108 3 gusting 7 1.1
2019-Dec-14 05:18 089 3 gusting 6 1.7
2019-Dec-14 05:02 103 2 gusting 6 1.7
2019-Dec-14 04:47 105 2 gusting 7 1.7
2019-Dec-14 04:32 119 4 gusting 9 1.7
2019-Dec-14 04:17 103 3 gusting 7 2.2
2019-Dec-14 04:03 156 1 gusting 7 2.2
2019-Dec-14 03:46 104 1 gusting 7 2.2
2019-Dec-14 03:31 161 3 gusting 6 2.2
2019-Dec-14 03:15 141 2 gusting 5 2.2
2019-Dec-14 03:00 089 2 gusting 8 2.8
2019-Dec-14 02:47 132 2 gusting 8 2.8
2019-Dec-14 02:32 108 4 gusting 7 2.8
2019-Dec-14 02:16 107 1 gusting 6 2.8
2019-Dec-14 02:00 093 2 gusting 6 2.8
2019-Dec-14 01:46 107 1 gusting 7 2.8
2019-Dec-14 01:30 094 2 gusting 8 2.8
2019-Dec-14 01:16 123 2 gusting 7 2.8
2019-Dec-14 01:00 124 3 gusting 9 2.8
2019-Dec-14 00:45 105 2 gusting 9 2.8
2019-Dec-14 00:30 094 4 gusting 9 2.8
2019-Dec-14 00:15 110 3 gusting 6 2.8
2019-Dec-14 00:00 091 0 gusting 5 2.8
2019-Dec-13 23:45 098 2 gusting 6 2.8
2019-Dec-13 23:30 113 3 gusting 7 3.3
2019-Dec-13 23:15 116 3 gusting 6 3.3
2019-Dec-13 23:00 114 3 gusting 6 3.3
2019-Dec-13 22:49 092 0 gusting 4 2.8
2019-Dec-13 22:33 057 0 gusting 6 3.3
2019-Dec-13 22:17 101 0 gusting 3 2.8
2019-Dec-13 22:02 091 1 gusting 3 2.8
2019-Dec-13 21:48 104 1 gusting 6 3.3
2019-Dec-13 21:35 100 2 gusting 6 3.3
2019-Dec-13 21:16 096 2 gusting 7 3.3
2019-Dec-13 21:02 053 1 gusting 6 3.3
2019-Dec-13 20:47 091 3.3
2019-Dec-13 20:32 067 0 gusting 3 3.3
2019-Dec-13 20:16 082 3 gusting 8 3.3
2019-Dec-13 20:01 104 0 gusting 5 3.3
2019-Dec-13 19:47 085 3.3
2019-Dec-13 19:32 070 1 gusting 6 3.3
2019-Dec-13 19:17 095 0 gusting 6 3.3
2019-Dec-13 19:02 110 3.3
2019-Dec-13 18:46 062 1 gusting 5 3.3
2019-Dec-13 18:31 086 0 gusting 5 3.3
2019-Dec-13 18:16 082 0 gusting 5 3.3
2019-Dec-13 18:01 103 4 gusting 7 2.8
2019-Dec-13 17:47 075 2 gusting 6 2.8
2019-Dec-13 17:31 114 1 gusting 6 2.8
2019-Dec-13 17:17 094 2.8
2019-Dec-13 17:00 077 0 gusting 8 2.8
2019-Dec-13 16:46 063 4 gusting 6 2.8
2019-Dec-13 16:31 067 1 gusting 6 2.8
2019-Dec-13 16:16 086 1 gusting 6 2.8
2019-Dec-13 16:01 044 1 gusting 5 2.2
2019-Dec-13 15:46 056 1 gusting 6 2.8
2019-Dec-13 15:32 073 1 gusting 4 2.8
2019-Dec-13 15:16 094 1 gusting 8 3.3
2019-Dec-13 15:00 073 3 gusting 6 3.3
2019-Dec-13 14:46 109 3 gusting 9 3.3
2019-Dec-13 14:30 113 4 gusting 9 3.3
2019-Dec-13 14:16 111 0 gusting 7 3.3
2019-Dec-13 14:00 076 3 gusting 9 3.3
2019-Dec-13 13:46 088 5 gusting 11 3.9
2019-Dec-13 13:31 043 2 gusting 8 3.9
2019-Dec-13 13:15 134 4 gusting 12 3.9
2019-Dec-13 13:00 088 2 gusting 16 3.9
2019-Dec-13 12:46 093 6 gusting 13 3.9
2019-Dec-13 12:30 066 2 gusting 12 3.9
2019-Dec-13 12:15 099 2 gusting 10 3.9
2019-Dec-13 12:00 131 5 gusting 12 3.9
2019-Dec-13 11:45 070 4 gusting 13 3.9
2019-Dec-13 11:30 104 7 gusting 13 3.3
2019-Dec-13 11:15 122 4 gusting 13 3.3
2019-Dec-13 11:00 070 6 gusting 12 3.3
2019-Dec-13 10:45 070 1 gusting 7 3.3
2019-Dec-13 10:31 119 3 gusting 9 3.3
2019-Dec-13 10:15 119 4 gusting 11 3.3
2019-Dec-13 10:00 089 4 gusting 11 3.3
2019-Dec-13 09:45 088 5 gusting 13 3.3
2019-Dec-13 09:32 114 3 gusting 13 3.3
2019-Dec-13 09:17 126 5 gusting 13 3.3
2019-Dec-13 09:03 125 6 gusting 12 3.3
2019-Dec-13 08:47 072 6 gusting 19 3.3
2019-Dec-13 08:32 080 5 gusting 13 3.3
2019-Dec-13 08:18 107 7 gusting 14 3.3
2019-Dec-13 08:02 118 6 gusting 14 3.3
2019-Dec-13 07:47 134 6 gusting 13 3.3
2019-Dec-13 07:32 094 9 gusting 15 3.9
2019-Dec-13 07:18 098 7 gusting 16 3.3
2019-Dec-13 07:01 122 6 gusting 13 3.3
2019-Dec-13 06:46 121 3 gusting 13 3.3
2019-Dec-13 06:32 087 6 gusting 13 3.3
2019-Dec-13 06:16 101 5 gusting 12 3.3
2019-Dec-13 06:01 108 3 gusting 14 3.3
2019-Dec-13 05:46 095 6 gusting 13 3.3
2019-Dec-13 05:32 133 5 gusting 13 3.3
2019-Dec-13 05:16 121 2 gusting 8 2.8
2019-Dec-13 05:01 116 2 gusting 8 2.8
2019-Dec-13 04:47 099 1 gusting 6 2.2
2019-Dec-13 04:31 098 2.2
2019-Dec-13 04:17 105 3 gusting 8 2.2
2019-Dec-13 04:01 098 3 gusting 10 2.2
2019-Dec-13 03:47 134 7 gusting 12 2.2
2019-Dec-13 03:30 108 4 gusting 10 2.2
2019-Dec-13 03:16 091 3 gusting 9 2.2
2019-Dec-13 03:00 117 2 gusting 10 2.2
2019-Dec-13 02:45 120 5 gusting 10 1.7
2019-Dec-13 02:30 125 2 gusting 10 1.7
2019-Dec-13 02:15 099 5 gusting 10 1.7
2019-Dec-13 02:00 108 3 gusting 11 1.7
2019-Dec-13 01:45 096 4 gusting 7 1.7
2019-Dec-13 01:30 123 3 gusting 9 1.7
2019-Dec-13 01:02 127 2 gusting 10 1.7
2019-Dec-13 00:46 126 4 gusting 9 1.7
2019-Dec-13 00:31 091 5 gusting 8 1.7
2019-Dec-13 00:16 110 3 gusting 8 1.7
2019-Dec-13 00:03 113 2 gusting 7 1.7
2019-Dec-12 23:47 129 2 gusting 6 1.7
2019-Dec-12 23:31 124 0 gusting 4 1.7
2019-Dec-12 23:16 153 0 gusting 3 1.7
2019-Dec-12 23:01 119 2 gusting 6 1.7
2019-Dec-12 22:46 138 2 gusting 7 2.2
2019-Dec-12 22:31 150 2 gusting 6 1.7
2019-Dec-12 22:16 146 1 gusting 5 1.7
2019-Dec-12 22:01 136 2 gusting 7 1.7
2019-Dec-12 21:46 148 2 gusting 6 1.7
2019-Dec-12 21:30 182 3 gusting 6 1.7
2019-Dec-12 21:16 147 2 gusting 7 1.7
2019-Dec-12 21:00 213 1 gusting 6 1.7
2019-Dec-12 20:45 146 2 gusting 6 2.2
2019-Dec-12 20:30 148 2 gusting 6 2.2
2019-Dec-12 20:15 162 1 gusting 5 2.2
2019-Dec-12 20:00 169 1 gusting 7 2.2
2019-Dec-12 19:45 170 0 gusting 5 1.7
2019-Dec-12 19:30 163 0 gusting 6 1.7
2019-Dec-12 19:15 143 1 gusting 6 1.7
2019-Dec-12 19:00 171 2 gusting 6 2.2
2019-Dec-12 18:45 144 1 gusting 6 2.2
2019-Dec-12 18:32 153 1 gusting 4 2.2
2019-Dec-12 18:18 162 3 gusting 7 2.2
2019-Dec-12 18:02 167 2 gusting 6 2.8
2019-Dec-12 17:48 156 2 gusting 6 2.8
2019-Dec-12 17:31 141 0 gusting 5 2.8
2019-Dec-12 17:18 158 2 gusting 6 2.8
2019-Dec-12 17:01 158 2.8
2019-Dec-12 16:48 165 2.8
2019-Dec-12 16:31 153 0 gusting 5 3.3
2019-Dec-12 16:18 141 1 gusting 4 2.8
2019-Dec-12 16:01 161 3.3
2019-Dec-12 15:46 126 3.3
2019-Dec-12 15:31 181 0 gusting 3 3.3
2019-Dec-12 15:16 150 0 gusting 6 3.9
2019-Dec-12 15:00 221 0 gusting 4 3.9
2019-Dec-12 14:46 220 1 gusting 5 3.9
2019-Dec-12 14:31 188 0 gusting 3 3.9
2019-Dec-12 14:16 214 4.4
2019-Dec-12 14:01 222 3 gusting 7 4.4
2019-Dec-12 13:47 183 2 gusting 6 4.4
2019-Dec-12 13:32 143 1 gusting 6 5.0
2019-Dec-12 13:16 160 3 gusting 9 5.0
2019-Dec-12 13:00 193 3 gusting 10 4.4
2019-Dec-12 12:45 212 1 gusting 7 4.4
2019-Dec-12 12:31 195 1 gusting 6 4.4
2019-Dec-12 12:15 153 1 gusting 8 4.4
2019-Dec-12 12:00 141 1 gusting 8 4.4